{"data":{"norad_id":45731,"epoch":"2026-09-19T19:17:33.218016Z","epoch_age_seconds":82158,"freshness":"FRESH","line1":"1 45731U 20038B   26262.80385669  .00100932  00000+0  44580-3 0  9994","line2":"2 45731  53.0420 347.7094 0003688 359.9734   0.1287 15.83703982346811","mean_motion":15.83703982,"eccentricity":0.0003688,"inclination_deg":53.042,"raan_deg":347.7094,"arg_perigee_deg":359.9734,"mean_anomaly_deg":0.1287,"bstar":0.0004458,"rev_number":34681,"period_min":90.926083180108,"perigee_km":317.50623230387,"apogee_km":322.44676081894,"semimajor_km":6698.1134965614,"source":"CELESTRAK","updated_at":"2026-09-20T09:00:38.455536Z"}}